sat.trackr.live / text

‹ back to catalog

ONEWEB-0444

NORAD 51638 · 2022-012S

PAYLOAD ACTIVE UNKNOWN

§ Identity

Operator
Country
UK
Launch date
2022-02-10
Launch site
FRGUI
Launch vehicle
Mass (kg)
RCS (m²)

Purposes: comms

External: N2YO · Heavens-Above · Gunter

§ Orbital elements

Epoch: 2026-09-18T13:23:36.485088Z

Period
109.89 min
Inclination
87.8904°
Eccentricity
0.0002010
Mean motion
13.10369881 rev/d
Perigee alt
1,220.2 km
Apogee alt
1,223.3 km
Semi-major
7,599.9 km
B*
9.2280e-4
RAAN
17.6787°
Arg perigee
100.4830°
Mean anomaly
259.6524°
Rev number
22,156

§ Raw data

ONEWEB-04441 51638U 22012S   26261.55806117  .00000335  00000+0  92280-3 0  99942 51638  87.8904  17.6787 0002010 100.4830 259.6524 13.10369881221565

JSON: /api/v1/satellites/51638 · /tle

For live sub-satellite position, see the globe view (requires WebGL).

§ Visibility from observer

Set your observer location to see the next 7 days of passes ≥ 10°. The values pass through the URL so the page stays shareable.

No JS? Fill the form by hand. The geolocation button needs JavaScript.